Terug naar catalogus

SL-14 R/B

ActiefPO
NORAD 21034·ROCKET BODY·🇷🇺 Russia

Gelanceerd Dec 22, 1990 vanaf Plesetsk Cosmodrome

Loading…

Volgende Passages (komende 24 uur)

TLE

VersSource: Space-Track

Epoch: Sep 14, 2026, 20:16 UTC

1 21034U 90114G   26257.84462678 -.00000008  00000-0 -10967-3 0  9998
2 21034  82.5617 274.0714 0039359 176.1019 359.9957 12.55538982637360

Volg SL-14 R/B in realtime met AllMySat

Download on the App Store